This is the latest recevied weather packets stored in our database for station/object JF2ZGN-13. If no packets are shown the sender has not sent any weather packets the latest 10 day(s).
| Time | Temp. | Humidity | Pressure | Rain* | Wind** | Luminosity | Snow |
|---|---|---|---|---|---|---|---|
| 1777418973 | 14.44° C | 56% | 904.2 hPa | 0 mm | - | - | - |
| 1777418372 | 14.44° C | 56% | 904 hPa | 0 mm | - | - | - |
| 1777417772 | 13.89° C | 56% | 904 hPa | 0 mm | - | - | - |
| 1777417172 | 13.89° C | 56% | 903.6 hPa | 0 mm | - | - | - |
| 1777416571 | 13.33° C | 56% | 903.5 hPa | 0 mm | - | - | - |
| 1777415971 | 13.33° C | 57% | 903.3 hPa | 0 mm | - | - | - |
| 1777415370 | 13.33° C | 58% | 903.3 hPa | 0 mm | - | - | - |
| 1777414770 | 13.33° C | 59% | 903.1 hPa | 0 mm | - | - | - |
| 1777414170 | 13.33° C | 62% | 902.9 hPa | 0 mm | - | - | - |
| 1777413569 | 13.33° C | 62% | 902.9 hPa | 0 mm | - | - | - |
| 1777412969 | 13.33° C | 62% | 902.8 hPa | 0 mm | - | - | - |
| 1777412368 | 13.33° C | 63% | 902.7 hPa | 0 mm | - | - | - |
| 1777411767 | 12.78° C | 63% | 902.6 hPa | 0 mm | - | - | - |
| 1777411167 | 13.33° C | 64% | 902.7 hPa | 0 mm | - | - | - |
| 1777410567 | 13.33° C | 63% | 902.6 hPa | 0 mm | - | - | - |
| 1777409966 | 12.78° C | 66% | 902.6 hPa | 0 mm | - | - | - |
| 1777409366 | 12.78° C | 67% | 902.6 hPa | 0 mm | - | - | - |
| 1777408765 | 12.78° C | 68% | 902.4 hPa | 0 mm | - | - | - |
| 1777408165 | 12.78° C | 68% | 902.2 hPa | 0 mm | - | - | - |
| 1777407564 | 12.78° C | 68% | 902.2 hPa | 0 mm | - | - | - |
| 1777406964 | 12.78° C | 67% | 902.1 hPa | 0 mm | - | - | - |
| 1777406363 | 12.78° C | 68% | 902 hPa | 0 mm | - | - | - |
| 1777405763 | 12.22° C | 69% | 901.9 hPa | 0 mm | - | - | - |
| 1777405163 | 12.22° C | 66% | 901.8 hPa | 0 mm | - | - | - |
| 1777404562 | 12.22° C | 65% | 902 hPa | 0 mm | - | - | - |
* Rain since midnight (hover to see other rain measurements)
** Current wind speed in m/s (hover to see current wind gust speed)